Location: Unspecified
(50.7693°N, 0.0000°E)
Time: 20:16:51
(UTC+00:00)

Transit 2A - Pass Details

Date: 04 July 2019
Orbit: 594 x 965 km, 66.7° (Epoch: 16 July)

Event Time Altitude Azimuth Distance (km) Brightness Sun altitude
Rises 04:00:57 0° 320° (NW) 3,515 9.4 0.2°
Reaches altitude 10° 04:03:57 10° 332° (NNW) 2,516 8.8 0.5°
Maximum altitude 04:08:52 28° 30° (NNE) 1,494 8.6 1.2°
Drops below altitude 10° 04:13:24 10° 89° (E) 2,292 9.5 1.7°
Sets 04:15:59 0° 101° (E) 3,148 9.9 2.1°
